FOX-1CLIFF (AO-95)

Last updated on Sat Jul 05 2025 00:03:06 GMT+0000 (Coordinated Universal Time)

1 43770U 18099N 25185.11377632 .00007918 00000+0 39659-3 0 9998 2 43770 97.4901 242.9315 0012092 124.1631 236.0751 15.17584754360270
UTC large
Height (km)
Speed (km/s)
/
Latitude / Longitude
Inclination (degrees)
Orbital Period (minutes)
Azimuth
Elevation
Range (km)
Doppler Factor

Next 0 passes for location: London (51.5072 / 0.1276)

Sorry there are no passes over London.